Bel Air, Maryland - USA |
Today's Data File |
9/1/26
Time Wind Dir Wind Spd Wind Gust Hum In Humidity Temp In Temp Raw Barom Wind Chill Press Alt Cloud Base Dens Alt Temp Out R DailyRain 24HrRain RainRate
� mph mph % % �F �F in �F ft ft ft �F/hr in in in/hr
12:00am 164 0 0 44 97 72.4 73.0 29.49 73.0 397 224 1414 -0.26 0.00 0.00 0.000
12:01am 164 0 0 44 97 72.4 73.0 29.49 73.0 398 224 1415 -0.26 0.00 0.00 0.000
12:02am 164 0 0 44 97 72.4 73.0 29.49 73.0 399 224 1416 -0.26 0.00 0.00 0.000
12:03am 164 0 0 44 97 72.4 73.0 29.49 73.0 400 224 1417 -0.25 0.00 0.00 0.000
12:04am 164 0 0 44 97 72.4 73.0 29.49 73.0 401 224 1418 -0.25 0.00 0.00 0.000
12:05am 164 0 0 44 97 72.4 73.0 29.49 73.0 401 224 1418 -0.24 0.00 0.00 0.000
12:06am 164 0 0 44 97 72.4 73.0 29.49 73.0 401 224 1418 -0.24 0.00 0.00 0.000
12:07am 164 0 0 44 97 72.4 73.0 29.49 73.0 402 224 1419 -0.24 0.00 0.00 0.000
12:08am 164 0 0 44 97 72.4 73.0 29.49 73.0 403 224 1420 -0.23 0.00 0.00 0.000
12:09am 164 0 0 44 97 72.4 73.0 29.49 73.0 404 224 1421 -0.23 0.00 0.00 0.000
12:10am 164 0 0 44 97 72.6 73.1 29.49 73.1 405 224 1429 -0.12 0.00 0.00 0.000
12:11am 164 0 0 44 97 72.6 73.0 29.48 73.0 406 224 1424 -0.22 0.00 0.00 0.000
12:12am 164 0 0 44 97 72.6 73.0 29.48 73.0 406 224 1425 -0.22 0.00 0.00 0.000
12:13am 164 0 0 44 97 72.6 73.1 29.48 73.1 406 224 1431 -0.11 0.00 0.00 0.000
12:14am 164 0 0 44 97 72.6 73.0 29.48 73.0 406 224 1424 -0.21 0.00 0.00 0.000
12:15am 164 0 0 44 97 72.4 73.0 29.48 73.0 406 224 1424 -0.21 0.00 0.00 0.000
12:16am 164 0 0 44 97 72.4 73.1 29.49 73.1 404 224 1428 -0.11 0.00 0.00 0.000
12:17am 164 0 0 44 97 72.4 73.0 29.49 73.0 403 224 1420 -0.20 0.00 0.00 0.000
12:18am 164 0 0 44 97 72.4 73.0 29.49 73.0 404 224 1421 -0.20 0.00 0.00 0.000
12:19am 164 0 0 44 97 72.4 73.1 29.49 73.1 403 224 1427 -0.10 0.00 0.00 0.000
12:20am 164 0 0 44 97 72.4 73.1 29.49 73.1 403 224 1427 -0.10 0.00 0.00 0.000
12:21am 164 0 0 44 97 72.4 73.0 29.49 73.0 404 224 1421 -0.19 0.00 0.00 0.000
12:22am 164 0 0 44 97 72.4 73.0 29.49 73.0 405 224 1423 -0.19 0.00 0.00 0.000
12:23am 164 0 0 44 97 72.4 73.1 29.48 73.1 406 224 1430 -0.09 0.00 0.00 0.000
12:24am 164 0 0 44 97 72.4 73.0 29.48 73.0 406 224 1424 -0.19 0.00 0.00 0.000
12:25am 164 0 0 44 97 72.4 73.1 29.48 73.1 406 224 1431 -0.08 0.00 0.00 0.000
12:26am 164 0 0 44 97 72.4 73.0 29.48 73.0 407 224 1426 -0.18 0.00 0.00 0.000
12:27am 164 0 0 44 97 72.4 73.0 29.48 73.0 407 224 1426 -0.18 0.00 0.00 0.000
12:28am 164 0 0 44 97 72.4 73.1 29.48 73.1 406 224 1431 -0.08 0.00 0.00 0.000
12:29am 164 0 0 44 97 72.4 73.0 29.48 73.0 407 224 1426 -0.18 0.00 0.00 0.000
12:30am 164 0 0 44 97 72.3 73.0 29.48 73.0 407 224 1426 -0.17 0.00 0.00 0.000
12:31am 164 0 0 44 97 72.4 73.1 29.48 73.1 407 224 1432 -0.07 0.00 0.00 0.000
12:32am 164 0 0 44 97 72.4 73.0 29.48 73.0 407 224 1426 -0.17 0.00 0.00 0.000
12:33am 164 0 0 44 97 72.4 73.0 29.48 73.0 407 224 1426 -0.16 0.00 0.00 0.000
12:34am 164 0 0 44 97 72.4 73.0 29.48 73.0 407 224 1426 -0.16 0.00 0.00 0.000
12:35am 164 0 0 44 97 72.4 73.0 29.48 73.0 407 224 1426 -0.16 0.00 0.00 0.000
12:36am 164 0 0 44 97 72.4 73.0 29.48 73.0 407 224 1426 -0.16 0.00 0.00 0.000
12:37am 164 0 0 44 97 72.4 73.0 29.48 73.0 407 224 1426 -0.15 0.00 0.00 0.000
12:38am 164 0 0 44 97 72.4 73.0 29.48 73.0 407 224 1426 -0.15 0.00 0.00 0.000
12:39am 164 0 0 44 97 72.4 73.0 29.48 73.0 407 224 1426 -0.15 0.00 0.00 0.000
12:40am 164 0 0 44 97 72.4 73.0 29.48 73.0 407 224 1426 -0.15 0.00 0.00 0.000
12:41am 164 0 0 44 97 72.4 72.9 29.48 72.9 407 224 1420 -0.24 0.00 0.00 0.000
12:42am 164 0 0 44 97 72.4 73.0 29.48 73.0 407 224 1426 -0.14 0.00 0.00 0.000
12:43am 164 0 0 44 97 72.4 72.9 29.48 72.9 407 224 1420 -0.24 0.00 0.00 0.000
12:44am 164 0 0 44 97 72.4 72.9 29.48 72.9 407 224 1420 -0.23 0.00 0.00 0.000
12:45am 164 0 0 44 97 72.4 72.9 29.48 72.9 408 224 1421 -0.23 0.00 0.00 0.000
12:46am 164 0 0 44 97 72.4 72.9 29.48 72.9 408 224 1421 -0.22 0.00 0.00 0.000
12:47am 164 0 0 44 97 72.4 72.9 29.48 72.9 408 224 1421 -0.22 0.00 0.00 0.000
12:48am 164 0 0 44 97 72.4 72.8 29.48 72.8 408 224 1414 -0.32 0.00 0.00 0.000
12:49am 164 0 0 44 97 72.4 72.8 29.48 72.8 408 224 1414 -0.31 0.00 0.00 0.000
12:50am 164 0 0 44 97 72.4 72.8 29.48 72.8 408 224 1414 -0.31 0.00 0.00 0.000
12:51am 164 0 0 44 97 72.4 72.8 29.48 72.8 408 224 1414 -0.30 0.00 0.00 0.000
12:52am 164 0 0 44 97 72.4 72.8 29.48 72.8 408 224 1414 -0.30 0.00 0.00 0.000
12:53am 164 0 0 44 97 72.4 72.8 29.48 72.8 408 224 1414 -0.29 0.00 0.00 0.000
12:54am 164 0 0 44 97 72.4 72.8 29.48 72.8 408 224 1414 -0.29 0.00 0.00 0.000
12:55am 164 0 0 44 97 72.4 72.7 29.48 72.7 408 224 1408 -0.38 0.00 0.00 0.000
12:56am 164 0 0 44 97 72.4 72.7 29.48 72.7 408 224 1408 -0.37 0.00 0.00 0.000
12:57am 164 0 0 44 97 72.4 72.7 29.48 72.7 408 224 1408 -0.37 0.00 0.00 0.000
12:58am 164 0 0 44 98 72.4 72.7 29.48 72.7 408 148 1408 -0.36 0.00 0.00 0.000
12:59am 164 0 0 44 97 72.4 72.7 29.48 72.7 408 224 1408 -0.36 0.00 0.00 0.000
1:00am 164 0 0 44 98 72.4 72.7 29.48 72.7 408 148 1408 -0.35 0.00 0.00 0.000
1:01am 164 0 0 44 98 72.4 72.7 29.48 72.7 408 148 1408 -0.34 0.00 0.00 0.000
1:02am 164 0 0 44 98 72.4 72.6 29.48 72.6 408 148 1402 -0.44 0.00 0.00 0.000
1:03am 164 0 0 44 98 72.4 72.6 29.48 72.6 408 148 1402 -0.43 0.00 0.00 0.000
1:04am 164 0 0 44 98 72.4 72.6 29.48 72.6 409 148 1403 -0.42 0.00 0.00 0.000
1:05am 164 0 0 44 98 72.4 72.6 29.48 72.6 409 148 1403 -0.42 0.00 0.00 0.000
1:06am 164 0 0 44 98 72.4 72.6 29.48 72.6 409 148 1403 -0.41 0.00 0.00 0.000
1:07am 164 0 0 44 98 72.4 72.6 29.48 72.6 409 148 1403 -0.41 0.00 0.00 0.000
1:08am 164 0 0 44 98 72.4 72.6 29.48 72.6 409 148 1403 -0.40 0.00 0.00 0.000
1:09am 164 0 0 44 98 72.4 72.7 29.48 72.7 410 148 1410 -0.29 0.00 0.00 0.000
1:10am 164 0 0 44 98 72.4 72.6 29.48 72.6 411 148 1405 -0.39 0.00 0.00 0.000
1:11am 164 0 0 44 98 72.4 72.6 29.48 72.6 411 148 1405 -0.38 0.00 0.00 0.000
1:12am 164 0 0 44 98 72.4 72.6 29.48 72.6 411 148 1405 -0.38 0.00 0.00 0.000
1:13am 164 0 0 44 98 72.4 72.6 29.48 72.6 410 148 1404 -0.37 0.00 0.00 0.000
1:14am 164 0 0 44 98 72.4 72.6 29.48 72.6 411 148 1405 -0.36 0.00 0.00 0.000
1:15am 164 0 0 44 98 72.4 72.6 29.48 72.6 411 148 1405 -0.36 0.00 0.00 0.000
1:16am 164 0 0 44 98 72.4 72.6 29.48 72.6 410 148 1404 -0.35 0.00 0.00 0.000
1:17am 164 0 0 44 98 72.4 72.6 29.48 72.6 411 148 1405 -0.35 0.00 0.00 0.000
1:18am 164 0 0 44 98 72.4 72.6 29.48 72.6 412 148 1406 -0.34 0.00 0.00 0.000
1:19am 164 0 0 44 98 72.4 72.6 29.48 72.6 413 148 1407 -0.34 0.00 0.00 0.000
1:20am 164 0 0 44 98 72.4 72.6 29.48 72.6 414 148 1408 -0.33 0.00 0.00 0.000
1:21am 164 0 0 44 98 72.4 72.6 29.48 72.6 414 148 1408 -0.33 0.00 0.00 0.000
1:22am 164 0 0 44 98 72.4 72.6 29.47 72.6 415 148 1410 -0.32 0.00 0.00 0.000
1:23am 164 0 0 44 98 72.4 72.6 29.47 72.6 416 148 1411 -0.31 0.00 0.00 0.000
1:24am 164 0 0 44 98 72.4 72.5 29.47 72.5 416 148 1404 -0.41 0.00 0.00 0.000
1:25am 164 0 0 44 98 72.4 72.6 29.47 72.6 415 148 1410 -0.30 0.00 0.00 0.000
1:26am 164 0 0 44 98 72.4 72.5 29.47 72.5 416 148 1404 -0.40 0.00 0.00 0.000
1:27am 164 0 0 44 98 72.4 72.5 29.47 72.5 416 148 1404 -0.39 0.00 0.00 0.000
1:28am 164 0 0 44 98 72.4 72.5 29.47 72.5 417 148 1405 -0.39 0.00 0.00 0.000
1:29am 164 0 0 44 98 72.4 72.5 29.47 72.5 417 148 1405 -0.38 0.00 0.00 0.000
1:30am 164 0 0 44 98 72.4 72.5 29.47 72.5 416 148 1404 -0.37 0.00 0.00 0.000
1:31am 164 0 0 44 98 72.6 72.5 29.47 72.5 418 148 1407 -0.37 0.00 0.00 0.000
1:32am 164 0 0 44 98 72.6 72.4 29.47 72.4 418 148 1401 -0.46 0.00 0.00 0.000
1:33am 164 0 0 44 98 72.6 72.4 29.47 72.4 419 148 1402 -0.45 0.00 0.00 0.000
1:34am 164 0 0 44 98 72.6 72.4 29.47 72.4 419 148 1402 -0.45 0.00 0.00 0.000
1:35am 164 0 0 44 98 72.6 72.5 29.47 72.5 419 148 1409 -0.34 0.00 0.00 0.000
1:36am 164 0 0 44 98 72.6 72.4 29.47 72.4 419 148 1402 -0.43 0.00 0.00 0.000
1:37am 164 0 0 44 98 72.6 72.4 29.47 72.4 419 148 1402 -0.43 0.00 0.00 0.000
1:38am 164 0 0 44 98 72.6 72.5 29.47 72.5 419 148 1409 -0.32 0.00 0.00 0.000
1:39am 164 0 0 44 98 72.6 72.4 29.47 72.4 420 148 1404 -0.41 0.00 0.00 0.000
1:40am 164 0 0 44 98 72.6 72.5 29.47 72.5 420 148 1410 -0.31 0.00 0.00 0.000
1:41am 164 0 0 44 98 72.6 72.5 29.47 72.5 420 148 1410 -0.30 0.00 0.00 0.000
1:42am 164 0 0 44 98 72.6 72.5 29.47 72.5 420 148 1410 -0.30 0.00 0.00 0.000
1:43am 164 0 0 44 98 72.6 72.4 29.47 72.4 421 148 1405 -0.39 0.00 0.00 0.000
1:44am 164 0 0 44 98 72.6 72.4 29.47 72.4 421 148 1405 -0.38 0.00 0.00 0.000
1:45am 164 0 0 44 98 72.6 72.4 29.47 72.4 421 148 1405 -0.38 0.00 0.00 0.000
1:46am 164 0 0 44 98 72.6 72.4 29.47 72.4 421 148 1405 -0.37 0.00 0.00 0.000
1:47am 164 0 0 44 98 72.4 72.4 29.47 72.4 421 148 1405 -0.37 0.00 0.00 0.000
1:48am 164 0 0 44 98 72.4 72.4 29.47 72.4 422 148 1406 -0.36 0.00 0.00 0.000
1:49am 164 0 0 44 98 72.4 72.4 29.47 72.4 421 148 1405 -0.35 0.00 0.00 0.000
1:50am 164 0 0 44 98 72.4 72.4 29.47 72.4 421 148 1405 -0.35 0.00 0.00 0.000
1:51am 164 0 0 45 98 72.4 72.3 29.47 72.3 422 148 1399 -0.44 0.00 0.00 0.000
1:52am 164 0 0 44 98 72.4 72.3 29.47 72.3 422 148 1399 -0.43 0.00 0.00 0.000
1:53am 164 0 0 44 98 72.4 72.3 29.47 72.3 422 148 1399 -0.43 0.00 0.00 0.000
1:54am 164 0 0 44 98 72.4 72.3 29.47 72.3 422 148 1399 -0.42 0.00 0.00 0.000
1:55am 164 0 0 44 98 72.4 72.3 29.47 72.3 422 148 1399 -0.41 0.00 0.00 0.000
1:56am 164 0 0 44 98 72.4 72.3 29.47 72.3 422 148 1399 -0.41 0.00 0.00 0.000
1:57am 164 0 0 44 98 72.4 72.3 29.47 72.3 422 148 1399 -0.40 0.00 0.00 0.000
1:58am 164 0 0 44 98 72.4 72.2 29.47 72.2 422 148 1393 -0.49 0.00 0.00 0.000
1:59am 164 0 0 44 98 72.4 72.2 29.47 72.2 422 148 1393 -0.48 0.00 0.00 0.000
2:00am 164 0 0 44 98 72.4 72.2 29.47 72.2 421 148 1392 -0.47 0.00 0.00 0.000
2:01am 164 0 0 44 98 72.4 72.1 29.47 72.1 421 148 1386 -0.57 0.00 0.00 0.000
2:02am 164 0 0 44 98 72.4 72.2 29.47 72.2 421 148 1392 -0.46 0.00 0.00 0.000
2:03am 164 0 0 44 98 72.4 72.2 29.47 72.2 421 148 1392 -0.45 0.00 0.00 0.000
2:04am 164 0 0 44 98 72.4 72.2 29.47 72.2 421 148 1392 -0.44 0.00 0.00 0.000
2:05am 164 0 0 44 98 72.4 72.1 29.47 72.1 421 148 1386 -0.53 0.00 0.00 0.000
2:06am 164 0 0 44 98 72.4 72.1 29.47 72.1 421 148 1386 -0.52 0.00 0.00 0.000
2:07am 164 0 0 44 98 72.4 72.1 29.47 72.1 421 148 1386 -0.52 0.00 0.00 0.000
2:08am 164 0 0 44 98 72.4 72.1 29.47 72.1 421 148 1386 -0.51 0.00 0.00 0.000
2:09am 164 0 0 44 98 72.4 72.1 29.47 72.1 421 148 1386 -0.50 0.00 0.00 0.000
2:10am 164 0 0 44 98 72.6 72.1 29.47 72.1 421 148 1386 -0.49 0.00 0.00 0.000
2:11am 164 0 0 44 98 72.6 72.1 29.47 72.1 421 148 1386 -0.48 0.00 0.00 0.000
2:12am 164 0 0 44 98 72.6 72.0 29.47 72.0 421 148 1379 -0.57 0.00 0.00 0.000
2:13am 164 0 0 44 98 72.6 72.0 29.47 72.0 421 148 1379 -0.56 0.00 0.00 0.000
2:14am 164 0 0 44 98 72.6 72.1 29.47 72.1 422 148 1387 -0.45 0.00 0.00 0.000
2:15am 164 0 0 44 99 72.6 72.0 29.47 72.0 422 73 1380 -0.55 0.00 0.00 0.000
2:16am 164 0 0 44 99 72.6 72.0 29.47 72.0 422 73 1380 -0.54 0.00 0.00 0.000
2:17am 164 0 0 44 99 72.6 72.1 29.47 72.1 422 73 1387 -0.43 0.00 0.00 0.000
2:18am 164 0 0 44 99 72.6 72.1 29.47 72.1 422 73 1387 -0.42 0.00 0.00 0.000
2:19am 164 0 0 44 99 72.6 72.2 29.47 72.2 423 73 1394 -0.32 0.00 0.00 0.000
2:20am 164 0 0 44 99 72.6 72.2 29.47 72.2 423 73 1394 -0.31 0.00 0.00 0.000
2:21am 164 0 0 44 99 72.6 72.2 29.47 72.2 423 73 1394 -0.31 0.00 0.00 0.000
2:22am 164 0 0 45 99 72.6 72.2 29.47 72.2 423 73 1394 -0.30 0.00 0.00 0.000
2:23am 164 0 0 44 99 72.6 72.2 29.47 72.2 423 73 1394 -0.30 0.00 0.00 0.000
2:24am 164 0 0 44 99 72.6 72.2 29.47 72.2 423 73 1394 -0.29 0.00 0.00 0.000
2:25am 164 0 0 44 99 72.6 72.2 29.47 72.2 423 73 1394 -0.29 0.00 0.00 0.000
2:26am 164 0 0 44 99 72.6 72.2 29.47 72.2 423 73 1394 -0.28 0.00 0.00 0.000
2:27am 164 0 0 44 99 72.6 72.3 29.47 72.3 423 73 1401 -0.18 0.00 0.00 0.000
2:28am 164 0 0 44 99 72.6 72.3 29.47 72.3 422 73 1399 -0.17 0.00 0.00 0.000
2:29am 164 0 0 44 99 72.6 72.3 29.47 72.3 423 73 1401 -0.17 0.00 0.00 0.000
2:30am 164 0 0 44 99 72.4 72.3 29.47 72.3 423 73 1401 -0.17 0.00 0.00 0.000
2:31am 164 0 0 44 99 72.4 72.3 29.47 72.3 423 73 1401 -0.17 0.00 0.00 0.000
2:32am 164 0 0 44 99 72.4 72.3 29.46 72.3 424 73 1402 -0.16 0.00 0.00 0.000
2:33am 164 0 0 44 99 72.4 72.3 29.46 72.3 424 73 1402 -0.16 0.00 0.00 0.000
2:34am 164 0 0 44 99 72.4 72.3 29.46 72.3 424 73 1402 -0.16 0.00 0.00 0.000
2:35am 164 0 0 44 99 72.4 72.3 29.46 72.3 424 73 1402 -0.16 0.00 0.00 0.000
2:36am 164 0 0 44 99 72.4 72.3 29.46 72.3 424 73 1402 -0.15 0.00 0.00 0.000
2:37am 164 0 0 44 99 72.4 72.3 29.46 72.3 424 73 1402 -0.15 0.00 0.00 0.000
2:38am 164 0 0 44 99 72.4 72.3 29.47 72.3 423 73 1401 -0.15 0.00 0.00 0.000
2:39am 164 0 0 44 99 72.4 72.4 29.46 72.4 424 73 1408 -0.05 0.00 0.00 0.000
2:40am 164 0 0 44 99 72.4 72.4 29.46 72.4 424 73 1408 -0.05 0.00 0.00 0.000
2:41am 164 0 0 44 99 72.4 72.4 29.46 72.4 424 73 1408 -0.04 0.00 0.00 0.000
2:42am 164 0 0 44 99 72.4 72.4 29.46 72.4 424 73 1408 -0.04 0.00 0.00 0.000
2:43am 164 0 0 44 99 72.4 72.4 29.46 72.4 425 73 1409 -0.04 0.00 0.00 0.000
2:44am 164 0 0 44 99 72.4 72.5 29.46 72.5 425 73 1416 0.06 0.00 0.00 0.000
2:45am 164 0 0 44 99 72.4 72.5 29.46 72.5 425 73 1416 0.06 0.00 0.00 0.000
2:46am 164 0 0 44 99 72.4 72.5 29.46 72.5 426 73 1417 0.06 0.00 0.00 0.000
2:47am 164 0 0 44 99 72.4 72.6 29.46 72.6 427 73 1424 0.15 0.00 0.00 0.000
2:48am 164 0 0 44 99 72.4 72.5 29.46 72.5 428 73 1419 0.05 0.00 0.00 0.000
2:49am 164 0 0 44 99 72.6 72.5 29.46 72.5 429 73 1420 0.05 0.00 0.00 0.000
2:50am 164 0 0 44 99 72.6 72.5 29.46 72.5 430 73 1422 0.05 0.00 0.00 0.000
2:51am 164 0 0 44 99 72.6 72.6 29.46 72.6 431 73 1430 0.15 0.00 0.00 0.000
2:52am 164 0 0 44 99 72.6 72.5 29.45 72.5 433 73 1426 0.05 0.00 0.00 0.000
2:53am 164 0 0 44 99 72.6 72.5 29.45 72.5 434 73 1427 0.04 0.00 0.00 0.000
2:54am 164 0 0 44 99 72.6 72.6 29.45 72.6 434 73 1433 0.14 0.00 0.00 0.000
2:55am 164 0 0 44 99 72.6 72.5 29.45 72.5 434 73 1427 0.04 0.00 0.00 0.000
2:56am 164 0 0 44 99 72.6 72.5 29.45 72.5 434 73 1427 0.04 0.00 0.00 0.000
2:57am 164 0 0 44 99 72.6 72.5 29.45 72.5 435 73 1428 0.04 0.00 0.00 0.000
2:58am 164 0 0 44 99 72.6 72.5 29.45 72.5 435 73 1428 0.04 0.00 0.00 0.000
2:59am 164 0 0 44 99 72.6 72.5 29.45 72.5 435 73 1428 0.04 0.00 0.00 0.000
3:00am 164 0 0 44 99 72.6 72.4 29.45 72.4 436 73 1423 -0.06 0.00 0.00 0.000
3:01am 164 0 0 44 99 72.6 72.4 29.45 72.4 436 73 1423 -0.06 0.00 0.00 0.000
3:02am 164 0 0 44 99 72.6 72.4 29.45 72.4 436 73 1423 -0.06 0.00 0.00 0.000
3:03am 164 0 0 44 99 72.6 72.4 29.45 72.4 436 73 1423 -0.06 0.00 0.00 0.000
3:04am 164 0 0 44 99 72.6 72.4 29.45 72.4 436 73 1423 -0.06 0.00 0.00 0.000
3:05am 164 0 0 44 99 72.6 72.4 29.45 72.4 436 73 1423 -0.06 0.00 0.00 0.000
3:06am 164 0 0 44 99 72.6 72.4 29.45 72.4 436 73 1423 -0.05 0.00 0.00 0.000
3:07am 164 0 0 44 99 72.6 72.3 29.45 72.3 436 73 1416 -0.15 0.00 0.00 0.000
3:08am 164 0 0 44 99 72.6 72.3 29.45 72.3 436 73 1416 -0.15 0.00 0.00 0.000
3:09am 164 0 0 44 99 72.6 72.3 29.45 72.3 436 73 1416 -0.15 0.00 0.00 0.000
3:10am 164 0 0 44 99 72.6 72.3 29.45 72.3 436 73 1416 -0.15 0.00 0.00 0.000
3:11am 164 0 0 44 99 72.6 72.2 29.45 72.2 436 73 1410 -0.24 0.00 0.00 0.000
3:12am 164 0 0 44 99 72.6 72.2 29.45 72.2 436 73 1410 -0.24 0.00 0.00 0.000
3:13am 164 0 0 44 99 72.6 72.2 29.45 72.2 436 73 1410 -0.23 0.00 0.00 0.000
3:14am 164 0 0 44 99 72.6 72.2 29.45 72.2 436 73 1410 -0.23 0.00 0.00 0.000
3:15am 164 0 0 44 99 72.6 72.2 29.45 72.2 437 73 1411 -0.23 0.00 0.00 0.000
3:16am 164 0 0 44 99 72.6 72.1 29.45 72.1 437 73 1405 -0.32 0.00 0.00 0.000
3:17am 164 0 0 44 99 72.6 72.2 29.45 72.2 436 73 1410 -0.22 0.00 0.00 0.000
3:18am 164 0 0 44 99 72.6 72.2 29.45 72.2 436 73 1410 -0.21 0.00 0.00 0.000
3:19am 164 0 0 44 99 72.6 72.2 29.45 72.2 436 73 1410 -0.21 0.00 0.00 0.000
3:20am 164 0 0 44 99 72.6 72.1 29.45 72.1 436 73 1404 -0.31 0.00 0.00 0.000
3:21am 164 0 0 44 99 72.6 72.1 29.45 72.1 436 73 1404 -0.30 0.00 0.00 0.000
3:22am 164 0 0 44 99 72.6 72.1 29.45 72.1 436 73 1404 -0.30 0.00 0.00 0.000
3:23am 164 0 0 44 99 72.6 72.1 29.45 72.1 436 73 1404 -0.29 0.00 0.00 0.000
3:24am 164 0 0 44 99 72.6 72.1 29.45 72.1 437 73 1405 -0.29 0.00 0.00 0.000
3:25am 164 0 0 44 99 72.6 72.1 29.45 72.1 437 73 1405 -0.28 0.00 0.00 0.000
3:26am 164 0 0 44 99 72.6 72.1 29.45 72.1 437 73 1405 -0.28 0.00 0.00 0.000
3:27am 164 0 0 44 99 72.6 72.1 29.45 72.1 437 73 1405 -0.27 0.00 0.00 0.000
3:28am 164 0 0 44 99 72.6 72.1 29.45 72.1 437 73 1405 -0.27 0.00 0.00 0.000
3:29am 164 0 0 44 99 72.6 72.1 29.45 72.1 437 73 1405 -0.26 0.00 0.00 0.000
3:30am 164 0 0 44 99 72.6 72.0 29.45 72.0 437 73 1398 -0.36 0.00 0.00 0.000
3:31am 164 0 0 44 99 72.6 72.1 29.45 72.1 437 73 1405 -0.25 0.00 0.00 0.000
3:32am 164 0 0 44 99 72.6 72.1 29.45 72.1 437 73 1405 -0.25 0.00 0.00 0.000
3:33am 164 0 0 44 99 72.6 72.1 29.45 72.1 437 73 1405 -0.24 0.00 0.00 0.000
3:34am 164 0 0 44 99 72.6 72.1 29.45 72.1 438 73 1406 -0.24 0.00 0.00 0.000
3:35am 164 0 0 44 99 72.6 72.1 29.45 72.1 438 73 1406 -0.24 0.00 0.00 0.000
3:36am 164 0 0 44 99 72.6 72.1 29.45 72.1 439 73 1407 -0.23 0.00 0.00 0.000
3:37am 164 0 0 44 99 72.6 72.1 29.45 72.1 440 73 1408 -0.23 0.00 0.00 0.000
3:38am 164 0 0 44 99 72.6 72.1 29.45 72.1 441 73 1409 -0.22 0.00 0.00 0.000
3:39am 164 0 0 44 99 72.6 72.2 29.45 72.2 440 73 1415 -0.12 0.00 0.00 0.000
3:40am 164 0 0 44 99 72.6 72.1 29.45 72.1 441 73 1409 -0.22 0.00 0.00 0.000
3:41am 164 0 0 44 99 72.6 72.0 29.45 72.0 441 73 1403 -0.31 0.00 0.00 0.000
3:42am 164 0 0 44 99 72.6 72.1 29.45 72.1 440 73 1408 -0.21 0.00 0.00 0.000
3:43am 164 0 0 44 99 72.6 72.1 29.45 72.1 441 73 1409 -0.21 0.00 0.00 0.000
3:44am 164 0 0 44 99 72.6 72.1 29.45 72.1 441 73 1410 -0.20 0.00 0.00 0.000
3:45am 164 0 0 44 99 72.6 72.1 29.45 72.1 441 73 1410 -0.20 0.00 0.00 0.000
3:46am 164 0 0 44 99 72.8 72.0 29.44 72.0 442 73 1405 -0.30 0.00 0.00 0.000
3:47am 164 0 0 44 99 72.8 72.1 29.44 72.1 442 73 1412 -0.19 0.00 0.00 0.000
3:48am 164 0 0 44 99 72.8 72.0 29.44 72.0 442 73 1405 -0.29 0.00 0.00 0.000
3:49am 164 0 0 44 99 72.8 72.1 29.44 72.1 442 73 1412 -0.19 0.00 0.00 0.000
3:50am 164 0 0 44 99 72.8 72.1 29.44 72.1 444 73 1414 -0.18 0.00 0.00 0.000
3:51am 164 0 0 44 99 72.8 72.1 29.44 72.1 444 73 1414 -0.18 0.00 0.00 0.000
3:52am 164 0 0 44 99 72.8 72.1 29.44 72.1 444 73 1414 -0.18 0.00 0.00 0.000
3:53am 164 0 0 44 100 72.8 72.1 29.44 72.1 445 0 1415 -0.17 0.00 0.00 0.000
3:54am 164 0 0 44 100 72.8 72.1 29.44 72.1 445 0 1415 -0.17 0.00 0.00 0.000
3:55am 164 0 0 44 99 72.8 72.2 29.44 72.2 445 73 1421 -0.07 0.00 0.00 0.000
3:56am 164 0 0 44 99 72.8 72.2 29.44 72.2 445 73 1421 -0.07 0.00 0.00 0.000
3:57am 164 0 0 44 99 72.8 72.2 29.44 72.2 445 73 1421 -0.07 0.00 0.00 0.000
3:58am 164 0 0 44 99 72.8 72.2 29.44 72.2 444 73 1420 -0.06 0.00 0.00 0.000
3:59am 164 0 0 44 99 72.8 72.2 29.44 72.2 444 73 1420 -0.06 0.00 0.00 0.000
4:00am 164 0 0 44 99 72.8 72.2 29.44 72.2 443 73 1419 -0.06 0.00 0.00 0.000
4:01am 164 0 0 44 99 72.8 72.2 29.44 72.2 443 73 1419 -0.06 0.00 0.00 0.000
4:02am 164 0 0 44 99 72.6 72.3 29.44 72.3 444 73 1427 0.04 0.00 0.00 0.000
4:03am 164 0 0 44 99 72.6 72.2 29.44 72.2 444 73 1420 -0.06 0.00 0.00 0.000
4:04am 164 0 0 44 99 72.6 72.3 29.44 72.3 445 73 1428 0.04 0.00 0.00 0.000
4:05am 164 0 0 44 99 72.6 72.3 29.44 72.3 444 73 1427 0.04 0.00 0.00 0.000
4:06am 164 0 0 44 99 72.6 72.3 29.44 72.3 443 73 1425 0.04 0.00 0.00 0.000
4:07am 164 0 0 44 99 72.6 72.3 29.44 72.3 444 73 1427 0.04 0.00 0.00 0.000
4:08am 164 0 0 45 99 72.6 72.3 29.44 72.3 444 73 1427 0.04 0.00 0.00 0.000
4:09am 164 0 0 44 99 72.6 72.3 29.44 72.3 444 73 1427 0.04 0.00 0.00 0.000
4:10am 164 0 0 44 99 72.6 72.3 29.44 72.3 444 73 1427 0.04 0.00 0.00 0.000
4:11am 164 0 0 44 99 72.6 72.3 29.44 72.3 444 73 1427 0.04 0.00 0.00 0.000
4:12am 164 0 0 44 99 72.6 72.3 29.44 72.3 444 73 1427 0.03 0.00 0.00 0.000
4:13am 164 0 0 44 99 72.6 72.3 29.44 72.3 444 73 1427 0.03 0.00 0.00 0.000
4:14am 164 0 0 44 99 72.6 72.3 29.44 72.3 444 73 1427 0.03 0.00 0.00 0.000
4:15am 164 0 0 44 99 72.6 72.4 29.44 72.4 444 73 1433 0.13 0.00 0.00 0.000
4:16am 164 0 0 44 99 72.6 72.3 29.44 72.3 444 73 1427 0.03 0.00 0.00 0.000
4:17am 164 0 0 44 99 72.6 72.4 29.44 72.4 443 73 1432 0.13 0.00 0.00 0.000
4:18am 164 0 0 44 99 72.6 72.3 29.45 72.3 441 73 1423 0.03 0.00 0.00 0.000
4:19am 164 0 0 44 99 72.6 72.3 29.45 72.3 441 73 1422 0.03 0.00 0.00 0.000
4:20am 164 0 0 44 99 72.6 72.3 29.45 72.3 440 73 1421 0.03 0.00 0.00 0.000
4:21am 164 0 0 44 99 72.6 72.3 29.45 72.3 439 73 1420 0.03 0.00 0.00 0.000
4:22am 164 0 0 44 99 72.6 72.3 29.45 72.3 438 73 1419 0.03 0.00 0.00 0.000
4:23am 164 0 0 44 99 72.8 72.3 29.45 72.3 438 73 1419 0.03 0.00 0.00 0.000
4:24am 164 0 0 44 99 72.8 72.3 29.45 72.3 438 73 1419 0.03 0.00 0.00 0.000
4:25am 164 0 0 44 99 72.8 72.2 29.45 72.2 438 73 1412 -0.07 0.00 0.00 0.000
4:26am 164 0 0 44 99 72.8 72.2 29.45 72.2 437 73 1411 -0.07 0.00 0.00 0.000
4:27am 164 0 0 44 99 72.8 72.3 29.45 72.3 437 73 1418 0.03 0.00 0.00 0.000
4:28am 164 0 0 44 99 72.8 72.2 29.45 72.2 437 73 1411 -0.07 0.00 0.00 0.000
4:29am 164 0 0 44 99 72.8 72.2 29.45 72.2 437 73 1411 -0.07 0.00 0.00 0.000
4:30am 164 0 0 44 99 72.8 72.2 29.45 72.2 437 73 1411 -0.07 0.00 0.00 0.000
4:31am 164 0 0 44 99 72.8 72.2 29.45 72.2 436 73 1410 -0.07 0.00 0.00 0.000
4:32am 164 0 0 44 99 72.8 72.2 29.45 72.2 436 73 1410 -0.07 0.00 0.00 0.000
4:33am 164 0 0 44 99 72.8 72.2 29.45 72.2 436 73 1410 -0.07 0.00 0.00 0.000
4:34am 164 0 0 44 99 72.8 72.2 29.45 72.2 436 73 1410 -0.06 0.00 0.00 0.000
4:35am 164 0 0 44 99 72.8 72.2 29.45 72.2 436 73 1410 -0.06 0.00 0.00 0.000
4:36am 164 0 0 44 99 72.8 72.2 29.45 72.2 436 73 1410 -0.06 0.00 0.00 0.000
4:37am 164 0 0 44 99 72.8 72.2 29.45 72.2 436 73 1410 -0.06 0.00 0.00 0.000
4:38am 164 0 0 44 99 72.8 72.1 29.45 72.1 436 73 1404 -0.16 0.00 0.00 0.000
4:39am 164 0 0 44 99 72.8 72.1 29.45 72.1 436 73 1404 -0.16 0.00 0.00 0.000
4:40am 164 0 0 44 99 72.8 72.2 29.45 72.2 436 73 1410 -0.06 0.00 0.00 0.000
4:41am 164 0 0 44 100 73.0 72.2 29.45 72.2 437 0 1411 -0.06 0.00 0.00 0.000
4:42am 164 0 0 44 99 73.0 72.2 29.45 72.2 437 73 1411 -0.05 0.00 0.00 0.000
4:43am 164 0 0 44 99 72.8 72.2 29.45 72.2 437 73 1411 -0.05 0.00 0.00 0.000
4:44am 164 0 0 44 99 72.8 72.2 29.45 72.2 437 73 1411 -0.05 0.00 0.00 0.000
4:45am 164 0 0 44 100 72.8 72.2 29.45 72.2 437 0 1411 -0.05 0.00 0.00 0.000
4:46am 164 0 0 44 100 72.8 72.3 29.45 72.3 437 0 1418 0.05 0.00 0.00 0.000
4:47am 164 0 0 44 100 72.8 72.3 29.45 72.3 438 0 1419 0.05 0.00 0.00 0.000
4:48am 164 0 0 44 100 72.8 72.2 29.45 72.2 438 0 1412 -0.05 0.00 0.00 0.000
4:49am 164 0 0 44 100 72.8 72.2 29.45 72.2 438 0 1412 -0.05 0.00 0.00 0.000
4:50am 164 0 0 44 100 72.8 72.2 29.45 72.2 438 0 1412 -0.05 0.00 0.00 0.000
4:51am 164 0 0 44 100 72.8 72.3 29.45 72.3 438 0 1419 0.05 0.00 0.00 0.000
4:52am 164 0 0 44 99 72.8 72.2 29.45 72.2 437 73 1411 -0.05 0.00 0.00 0.000
4:53am 164 0 0 44 100 72.8 72.2 29.45 72.2 437 0 1411 -0.05 0.00 0.00 0.000
4:54am 164 0 0 44 99 72.8 72.3 29.45 72.3 437 73 1418 0.05 0.00 0.00 0.000
4:55am 164 0 0 44 99 72.8 72.2 29.45 72.2 437 73 1411 -0.05 0.00 0.00 0.000
4:56am 164 0 0 44 99 72.8 72.2 29.45 72.2 437 73 1411 -0.05 0.00 0.00 0.000
4:57am 164 0 0 44 99 72.8 72.2 29.45 72.2 437 73 1411 -0.05 0.00 0.00 0.000
4:58am 164 0 0 44 99 72.6 72.3 29.45 72.3 437 73 1418 0.05 0.00 0.00 0.000
4:59am 164 0 0 44 100 72.6 72.2 29.45 72.2 437 0 1411 -0.05 0.00 0.00 0.000
5:00am 164 0 0 44 99 72.6 72.2 29.45 72.2 438 73 1412 -0.05 0.00 0.00 0.000
5:01am 164 0 0 44 100 72.8 72.2 29.45 72.2 438 0 1412 -0.05 0.00 0.00 0.000
5:02am 164 0 0 44 100 72.6 72.2 29.45 72.2 438 0 1412 -0.05 0.00 0.00 0.000
5:03am 164 0 0 44 100 72.6 72.2 29.45 72.2 440 0 1415 -0.05 0.00 0.00 0.000
5:04am 164 0 0 44 100 72.8 72.2 29.45 72.2 440 0 1415 -0.05 0.00 0.00 0.000
5:05am 164 0 0 44 100 72.8 72.2 29.45 72.2 441 0 1416 -0.04 0.00 0.00 0.000
5:06am 164 0 0 44 100 72.8 72.2 29.45 72.2 441 0 1416 -0.04 0.00 0.00 0.000
5:07am 164 0 0 44 100 72.8 72.2 29.44 72.2 442 0 1418 -0.04 0.00 0.00 0.000
5:08am 164 0 0 44 100 72.8 72.2 29.45 72.2 441 0 1417 -0.04 0.00 0.00 0.000
5:09am 164 0 0 44 100 72.8 72.2 29.44 72.2 442 0 1418 -0.04 0.00 0.00 0.000
5:10am 164 0 0 44 100 72.8 72.2 29.44 72.2 444 0 1420 -0.04 0.00 0.00 0.000
5:11am 164 0 0 44 100 72.8 72.3 29.44 72.3 444 0 1427 0.06 0.00 0.00 0.000
5:12am 164 0 0 44 100 72.8 72.2 29.44 72.2 444 0 1420 -0.04 0.00 0.00 0.000
5:13am 164 0 0 44 100 72.8 72.2 29.44 72.2 445 0 1421 -0.04 0.00 0.00 0.000
5:14am 164 0 0 44 99 72.8 72.2 29.44 72.2 443 73 1419 -0.04 0.00 0.00 0.000
5:15am 164 0 0 44 100 72.8 72.2 29.44 72.2 443 0 1419 -0.04 0.00 0.00 0.000
5:16am 164 0 0 44 100 72.8 72.2 29.44 72.2 443 0 1419 -0.04 0.00 0.00 0.000
5:17am 164 0 0 44 100 72.8 72.2 29.44 72.2 442 0 1418 -0.04 0.00 0.00 0.000
5:18am 164 0 0 44 100 72.8 72.2 29.44 72.2 442 0 1418 -0.04 0.00 0.00 0.000
5:19am 164 0 0 44 100 72.8 72.2 29.44 72.2 443 0 1419 -0.04 0.00 0.00 0.000
5:20am 164 0 0 44 100 72.8 72.2 29.44 72.2 444 0 1420 -0.04 0.00 0.00 0.000
5:21am 164 0 0 44 100 72.8 72.2 29.44 72.2 445 0 1421 -0.04 0.00 0.00 0.000
5:22am 164 0 0 44 100 72.8 72.1 29.44 72.1 445 0 1415 -0.13 0.00 0.00 0.000
5:23am 164 0 0 44 100 72.8 72.1 29.44 72.1 448 0 1418 -0.13 0.00 0.00 0.000
5:24am 164 0 0 44 100 72.8 72.2 29.44 72.2 448 0 1425 -0.03 0.00 0.00 0.000
5:25am 164 0 0 44 100 72.8 72.1 29.44 72.1 449 0 1420 -0.13 0.00 0.00 0.000
5:26am 164 0 0 44 100 72.8 72.1 29.44 72.1 449 0 1420 -0.13 0.00 0.00 0.000
5:27am 164 0 0 44 100 73.0 72.1 29.44 72.1 449 0 1420 -0.13 0.00 0.00 0.000
5:28am 164 0 0 44 100 73.0 72.1 29.44 72.1 450 0 1421 -0.12 0.00 0.00 0.000
5:29am 164 0 0 44 100 73.0 72.0 29.44 72.0 450 0 1414 -0.22 0.00 0.00 0.000
5:30am 164 0 0 44 100 73.0 72.0 29.44 72.0 451 0 1415 -0.22 0.00 0.00 0.000
5:31am 164 0 0 44 100 73.0 72.0 29.44 72.0 451 0 1415 -0.21 0.00 0.00 0.000
5:32am 164 0 0 44 100 73.0 72.0 29.44 72.0 451 0 1415 -0.21 0.00 0.00 0.000
5:33am 164 0 0 44 100 73.0 72.0 29.44 72.0 451 0 1415 -0.21 0.00 0.00 0.000
5:34am 164 0 0 44 100 73.0 72.0 29.44 72.0 451 0 1415 -0.20 0.00 0.00 0.000
5:35am 164 0 0 44 100 73.0 72.0 29.44 72.0 451 0 1415 -0.20 0.00 0.00 0.000
5:36am 164 0 0 44 100 73.0 72.0 29.44 72.0 451 0 1415 -0.20 0.00 0.00 0.000
5:37am 164 0 0 44 100 73.0 72.0 29.44 72.0 451 0 1415 -0.19 0.00 0.00 0.000
5:38am 164 0 0 44 100 73.0 72.0 29.44 72.0 450 0 1414 -0.19 0.00 0.00 0.000
5:39am 164 0 0 44 100 73.0 72.0 29.44 72.0 450 0 1414 -0.19 0.00 0.00 0.000
5:40am 164 0 0 44 100 73.0 72.0 29.44 72.0 450 0 1414 -0.18 0.00 0.00 0.000
5:41am 164 0 0 44 100 73.0 71.9 29.44 71.9 451 0 1409 -0.28 0.00 0.00 0.000
5:42am 164 0 0 44 100 73.0 71.9 29.44 71.9 451 0 1409 -0.27 0.00 0.00 0.000
5:43am 164 0 0 44 100 73.0 71.9 29.44 71.9 451 0 1409 -0.27 0.00 0.00 0.000
5:44am 164 0 0 44 100 73.0 71.8 29.44 71.8 451 0 1403 -0.36 0.00 0.00 0.000
5:45am 164 0 0 44 100 73.0 71.8 29.43 71.8 452 0 1404 -0.36 0.00 0.00 0.000
5:46am 164 0 0 44 99 73.0 71.8 29.43 71.8 452 73 1404 -0.35 0.00 0.00 0.000
5:47am 164 0 0 44 99 72.8 71.8 29.43 71.8 452 73 1404 -0.35 0.00 0.00 0.000
5:48am 164 0 0 44 99 72.8 71.8 29.43 71.8 452 73 1404 -0.34 0.00 0.00 0.000
5:49am 164 0 0 44 99 72.8 71.7 29.43 71.7 452 73 1397 -0.43 0.00 0.00 0.000
5:50am 164 0 0 44 99 72.8 71.7 29.43 71.7 452 73 1397 -0.43 0.00 0.00 0.000
5:51am 164 0 0 44 99 72.8 71.7 29.43 71.7 452 73 1397 -0.42 0.00 0.00 0.000
5:52am 164 0 0 44 99 72.8 71.7 29.43 71.7 452 73 1397 -0.41 0.00 0.00 0.000
5:53am 164 0 0 44 99 72.8 71.7 29.43 71.7 452 73 1397 -0.40 0.00 0.00 0.000
5:54am 164 0 0 44 99 72.8 71.6 29.43 71.6 452 73 1391 -0.50 0.00 0.00 0.000
5:55am 164 0 0 44 99 72.8 71.6 29.43 71.6 452 73 1391 -0.49 0.00 0.00 0.000
5:56am 164 0 0 44 99 72.8 71.6 29.43 71.6 452 73 1391 -0.48 0.00 0.00 0.000
5:57am 164 0 0 44 100 72.8 71.6 29.43 71.6 452 0 1391 -0.47 0.00 0.00 0.000
5:58am 164 0 0 44 100 72.8 71.6 29.44 71.6 451 0 1390 -0.46 0.00 0.00 0.000
5:59am 164 0 0 44 100 72.8 71.6 29.44 71.6 451 0 1390 -0.46 0.00 0.00 0.000
6:00am 164 0 0 44 100 72.8 71.6 29.44 71.6 451 0 1390 -0.45 0.00 0.00 0.000
6:01am 164 0 0 44 100 72.8 71.6 29.44 71.6 451 0 1390 -0.44 0.00 0.00 0.000
6:02am 164 0 0 44 100 72.8 71.5 29.44 71.5 451 0 1384 -0.53 0.00 0.00 0.000
6:03am 164 0 0 44 100 72.8 71.5 29.44 71.5 450 0 1382 -0.53 0.00 0.00 0.000
6:04am 164 0 0 44 100 72.8 71.6 29.44 71.6 450 0 1389 -0.42 0.00 0.00 0.000
6:05am 164 0 0 44 100 72.8 71.6 29.44 71.6 451 0 1390 -0.41 0.00 0.00 0.000
6:06am 164 0 0 44 100 72.8 71.5 29.44 71.5 451 0 1384 -0.50 0.00 0.00 0.000
6:07am 164 0 0 44 100 72.8 71.6 29.44 71.6 451 0 1390 -0.40 0.00 0.00 0.000
6:08am 164 0 0 44 100 73.0 71.6 29.44 71.6 451 0 1390 -0.39 0.00 0.00 0.000
6:09am 164 0 0 44 100 73.0 71.6 29.44 71.6 451 0 1390 -0.38 0.00 0.00 0.000
6:10am 164 0 0 44 100 73.1 71.5 29.44 71.5 451 0 1384 -0.48 0.00 0.00 0.000
6:11am 164 0 0 44 100 73.1 71.5 29.44 71.5 451 0 1384 -0.47 0.00 0.00 0.000
6:12am 164 0 0 44 100 73.1 71.5 29.44 71.5 450 0 1382 -0.46 0.00 0.00 0.000
6:13am 164 0 0 44 100 73.0 71.5 29.44 71.5 451 0 1384 -0.45 0.00 0.00 0.000
6:14am 164 0 0 44 100 73.0 71.5 29.44 71.5 451 0 1384 -0.45 0.00 0.00 0.000
6:15am 164 0 0 44 100 73.0 71.4 29.44 71.4 451 0 1377 -0.54 0.00 0.00 0.000
6:16am 164 0 0 44 100 73.0 71.4 29.44 71.4 450 0 1376 -0.53 0.00 0.00 0.000
6:17am 164 0 0 44 100 73.1 71.5 29.44 71.5 450 0 1382 -0.42 0.00 0.00 0.000
6:18am 164 0 0 44 100 73.0 71.4 29.44 71.4 450 0 1376 -0.51 0.00 0.00 0.000
6:19am 164 0 0 44 100 73.0 71.4 29.44 71.4 450 0 1376 -0.51 0.00 0.00 0.000
6:20am 164 0 0 44 100 73.0 71.4 29.44 71.4 450 0 1376 -0.50 0.00 0.00 0.000
6:21am 164 0 0 44 100 73.0 71.4 29.44 71.4 449 0 1375 -0.49 0.00 0.00 0.000
6:22am 164 0 0 44 100 73.0 71.5 29.44 71.5 449 0 1381 -0.38 0.00 0.00 0.000
6:23am 164 0 0 44 100 73.0 71.5 29.44 71.5 449 0 1381 -0.38 0.00 0.00 0.000
6:24am 164 0 0 44 100 73.0 71.5 29.44 71.5 449 0 1381 -0.37 0.00 0.00 0.000
6:25am 164 0 0 44 100 73.1 71.5 29.44 71.5 450 0 1382 -0.36 0.00 0.00 0.000
6:26am 164 0 0 44 100 73.1 71.6 29.44 71.6 449 0 1388 -0.26 0.00 0.00 0.000
6:27am 164 0 0 44 100 73.1 71.6 29.44 71.6 449 0 1388 -0.25 0.00 0.00 0.000
6:28am 164 0 0 44 100 73.1 71.6 29.44 71.6 449 0 1388 -0.25 0.00 0.00 0.000
6:29am 164 0 0 44 100 73.1 71.6 29.44 71.6 449 0 1388 -0.24 0.00 0.00 0.000
6:30am 164 0 0 44 100 73.1 71.6 29.44 71.6 449 0 1388 -0.24 0.00 0.00 0.000
6:31am 164 0 0 44 100 73.1 71.6 29.44 71.6 450 0 1389 -0.24 0.00 0.00 0.000
6:32am 164 0 0 44 100 73.1 71.7 29.44 71.7 450 0 1395 -0.13 0.00 0.00 0.000
6:33am 164 0 0 44 100 73.1 71.7 29.44 71.7 450 0 1395 -0.13 0.00 0.00 0.000
6:34am 164 0 0 44 100 73.1 71.7 29.44 71.7 451 0 1396 -0.13 0.00 0.00 0.000
6:35am 164 0 0 44 100 73.1 71.7 29.44 71.7 451 0 1396 -0.13 0.00 0.00 0.000
6:36am 164 0 0 44 100 73.1 71.7 29.44 71.7 451 0 1396 -0.12 0.00 0.00 0.000
6:37am 164 0 0 44 100 73.1 71.7 29.44 71.7 451 0 1396 -0.12 0.00 0.00 0.000
6:38am 164 0 0 44 100 73.1 71.7 29.44 71.7 451 0 1396 -0.12 0.00 0.00 0.000
6:39am 164 0 0 44 100 73.1 71.7 29.44 71.7 451 0 1396 -0.12 0.00 0.00 0.000
6:40am 164 0 0 44 100 73.1 71.7 29.44 71.7 451 0 1396 -0.12 0.00 0.00 0.000
6:41am 164 0 0 44 100 73.1 71.8 29.44 71.8 451 0 1403 -0.02 0.00 0.00 0.000
6:42am 164 0 0 44 100 73.1 71.7 29.44 71.7 450 0 1395 -0.12 0.00 0.00 0.000
6:43am 164 0 0 44 100 73.3 71.8 29.44 71.8 450 0 1402 -0.02 0.00 0.00 0.000
6:44am 164 0 0 44 100 73.3 71.8 29.44 71.8 450 0 1402 -0.02 0.00 0.00 0.000
6:45am 164 0 0 44 100 73.3 71.8 29.44 71.8 450 0 1402 -0.02 0.00 0.00 0.000
6:46am 164 0 0 44 100 73.3 71.8 29.44 71.8 450 0 1402 -0.02 0.00 0.00 0.000
6:47am 164 0 0 44 100 73.3 71.8 29.44 71.8 450 0 1402 -0.02 0.00 0.00 0.000
6:48am 164 0 0 44 100 73.3 71.9 29.44 71.9 450 0 1408 0.08 0.00 0.00 0.000
6:49am 164 0 0 44 100 73.3 71.8 29.44 71.8 449 0 1400 -0.02 0.00 0.00 0.000
6:50am 164 0 0 44 100 73.3 71.8 29.44 71.8 449 0 1400 -0.02 0.00 0.00 0.000
6:51am 164 0 0 44 100 73.3 71.8 29.44 71.8 448 0 1399 -0.02 0.00 0.00 0.000
6:52am 164 0 0 44 100 73.3 71.7 29.44 71.7 446 0 1391 -0.12 0.00 0.00 0.000
6:53am 164 0 0 44 100 73.3 71.8 29.44 71.8 445 0 1396 -0.01 0.00 0.00 0.000
6:54am 164 0 0 44 100 73.3 71.7 29.44 71.7 443 0 1387 -0.11 0.00 0.00 0.000
6:55am 164 0 0 44 100 73.3 71.7 29.44 71.7 445 0 1390 -0.11 0.00 0.00 0.000
6:56am 164 0 0 44 100 73.3 71.7 29.44 71.7 445 0 1390 -0.11 0.00 0.00 0.000
6:57am 164 0 0 44 100 73.3 71.7 29.44 71.7 448 0 1393 -0.11 0.00 0.00 0.000
6:58am 164 0 0 44 100 73.3 71.7 29.44 71.7 448 0 1393 -0.11 0.00 0.00 0.000
6:59am 164 0 0 44 100 73.3 71.7 29.44 71.7 449 0 1394 -0.10 0.00 0.00 0.000
7:00am 164 0 0 44 100 73.5 71.7 29.44 71.7 449 0 1394 -0.10 0.00 0.00 0.000
7:01am 164 0 0 44 100 73.5 71.7 29.44 71.7 448 0 1393 -0.10 0.00 0.00 0.000
7:02am 164 0 0 44 100 73.5 71.7 29.44 71.7 446 0 1391 -0.10 0.00 0.00 0.000
7:03am 164 0 0 44 100 73.5 71.7 29.44 71.7 446 0 1391 -0.10 0.00 0.00 0.000
7:04am 164 0 0 44 100 73.5 71.7 29.44 71.7 448 0 1393 -0.09 0.00 0.00 0.000
7:05am 164 0 0 44 100 73.5 71.7 29.44 71.7 449 0 1394 -0.09 0.00 0.00 0.000
7:06am 164 0 0 44 100 73.5 71.8 29.44 71.8 450 0 1402 0.01 0.00 0.00 0.000
7:07am 164 0 0 44 100 73.5 71.9 29.44 71.9 450 0 1408 0.11 0.00 0.00 0.000
7:08am 164 0 0 44 100 73.5 71.9 29.44 71.9 450 0 1408 0.11 0.00 0.00 0.000
7:09am 164 0 0 44 100 73.5 71.9 29.44 71.9 451 0 1409 0.10 0.00 0.00 0.000
7:10am 164 0 0 44 100 73.5 71.9 29.44 71.9 451 0 1409 0.10 0.00 0.00 0.000
7:11am 164 0 0 44 100 73.5 72.0 29.44 72.0 451 0 1415 0.20 0.00 0.00 0.000
7:12am 164 0 0 44 100 73.5 72.0 29.44 72.0 451 0 1415 0.20 0.00 0.00 0.000
7:13am 164 0 0 44 100 73.5 72.0 29.44 72.0 451 0 1415 0.19 0.00 0.00 0.000
7:14am 164 0 0 44 100 73.5 72.1 29.44 72.1 451 0 1422 0.29 0.00 0.00 0.000
7:15am 164 0 0 44 100 73.5 72.1 29.44 72.1 450 0 1421 0.28 0.00 0.00 0.000
7:16am 164 0 0 44 100 73.6 72.1 29.44 72.1 450 0 1421 0.28 0.00 0.00 0.000
7:17am 164 0 0 44 100 73.6 72.1 29.44 72.1 449 0 1420 0.27 0.00 0.00 0.000
7:18am 164 0 0 44 100 73.6 72.1 29.44 72.1 449 0 1420 0.27 0.00 0.00 0.000
7:19am 164 0 0 44 100 73.6 72.1 29.44 72.1 448 0 1418 0.26 0.00 0.00 0.000
7:20am 164 0 0 44 100 73.6 72.2 29.44 72.2 448 0 1425 0.36 0.00 0.00 0.000
7:21am 164 0 0 45 100 73.6 72.3 29.44 72.3 448 0 1431 0.45 0.00 0.00 0.000
7:22am 164 0 0 44 100 73.6 72.3 29.44 72.3 446 0 1429 0.44 0.00 0.00 0.000
7:23am 164 0 0 44 100 73.6 72.3 29.44 72.3 448 0 1431 0.44 0.00 0.00 0.000
7:24am 164 0 0 44 100 73.6 72.4 29.44 72.4 446 0 1435 0.53 0.00 0.00 0.000
|
Data provided from: Mark Hofmann's Bel Air, MD Weather Station |